[[{"header":{"parameterUnit":"m.s-1","parameterCategory":1,"la1":30.2992,"la2":30.254,"lo1":-89.0895,"lo2":-89.0443,"dy":0.0025,"dx":0.0025,"nx":19,"ny":19,"refTime":"2026-03-10T09:00:00:Z","depth":0,"parameterNumber":2,"parameterNumberName":"U-component_of_WINDS"},"data":[0,0,0,-1.7806,-1.7806,-1.7824,-1.7825,-1.7855,-1.7855,0,0,0,0,0,0,0,0,0,0,0,-1.7805,-1.7805,-1.7806,-1.7807,-1.7824,-1.7825,-1.7855,-1.7855,0,0,0,0,0,0,0,0,0,0,0,-1.7805,-1.7805,-1.7806,-1.7807,-1.7824,-1.7825,-1.7855,-1.7839,0,0,0,0,0,0,0,0,0,0,-1.782,-1.7823,-1.7805,-1.7806,-1.7807,-1.7824,-1.7825,-1.7838,-1.784,-1.785,0,-1.786,0,-1.7858,-1.7858,-1.7858,0,0,0,-1.7803,-1.7822,-1.7823,-1.7806,-1.7807,-1.7824,-1.7815,-1.7839,-1.7841,-1.7852,-1.7861,-1.7861,-1.7859,-1.7858,-1.7858,-1.7928,-1.7929,0,0,-1.7802,-1.7811,-1.7821,-1.7824,-1.7822,-1.7815,-1.7816,-1.784,-1.7849,-1.7861,-1.7862,-1.7859,-1.7858,-1.7858,-1.7928,-1.7928,0,0,0,-1.7802,-1.781,-1.781,-1.7823,-1.7826,-1.7815,-1.7817,-1.7848,-1.7847,-1.7862,-1.786,-1.7858,-1.7859,-1.7927,-1.7928,-1.7959,0,0,0,-1.7801,-1.781,-1.781,-1.7815,-1.7826,-1.7837,-1.7825,-1.7846,-1.7848,-1.7859,-1.7858,-1.7859,-1.7927,-1.7928,-1.7957,-1.7972,0,0,0,-1.7802,-1.781,-1.7814,-1.7816,-1.7824,-1.7837,-1.7837,-1.7846,-1.7847,-1.7858,-1.7859,-1.7926,-1.7927,-1.7955,-1.7969,-1.7992,0,0,0,-1.7806,-1.7842,-1.7815,-1.7853,-1.7824,-1.7856,-1.7837,-1.7861,-1.7874,-1.7859,-1.7927,-1.7928,-1.7955,-1.7968,-1.7991,-1.8013,-1.8023,0,0,-1.7856,-1.7848,-1.787,-1.7846,-1.7886,-1.7853,-1.7897,-1.7901,-1.7895,-1.7917,-1.7919,-1.7958,-1.7969,-1.7992,-1.808,-1.8088,0,0,0,-1.7889,-1.7905,-1.7913,-1.7926,-1.7931,-1.7935,-1.7932,-1.7934,-1.7952,-1.7908,-1.7973,-1.7979,-1.7992,-1.8002,-1.801,-1.802,-1.7933,-1.7933,-1.7933,-1.797,-1.796,-1.7996,-1.7988,-1.8001,-1.7997,-1.8006,-1.8008,-1.7994,-1.801,-1.8016,-1.807,-1.8082,-1.8087,-1.8098,-1.8028,-1.8028,-1.8028,-1.8028,-1.8041,-1.8061,-1.8042,-1.8069,-1.8059,-1.8082,-1.808,-1.8069,-1.8089,-1.8065,-1.8076,-1.8049,-1.8097,-1.8106,-1.803,-1.803,-1.803,-1.8029,-1.8029,-1.8092,-1.81,-1.8102,-1.8119,-1.8134,-1.8125,-1.8145,-1.8134,-1.8125,-1.8136,-1.8141,-1.814,-1.8137,-1.8139,-1.8139,-1.8139,-1.814,-1.814,-1.814,-1.8144,-1.8145,-1.8163,-1.817,-1.8177,-1.8185,-1.8182,-1.8188,-1.8193,-1.8184,-1.8184,-1.8168,-1.8104,-1.8087,-1.8143,-1.8142,-1.8142,-1.8142,-1.8141,-1.8218,-1.8199,-1.8227,-1.8234,-1.8241,-1.8256,-1.8243,-1.8257,-1.8261,-1.8271,-1.8254,-1.8208,-1.82,-1.8194,-1.818,-1.8256,-1.8256,-1.8256,-1.8256,-1.826,-1.8255,-1.828,-1.8292,-1.8302,-1.8293,-1.8324,-1.8322,-1.8317,-1.8319,-1.8307,-1.8288,-1.8283,-1.8277,-1.827,-1.8257,-1.835,-1.8351,-1.8351,-1.8304,-1.8299,-1.8328,-1.8323,-1.8328,-1.8333,-1.8362,-1.8376,-1.8367,-1.8354,-1.832,-1.8316,-1.8286,-1.8277,-1.8262,-1.8251,-1.8226,0,0]},{"header":{"parameterUnit":"m.s-1","parameterCategory":1,"la1":30.2992,"la2":30.254,"lo1":-89.0895,"lo2":-89.0443,"dy":0.0025,"dx":0.0025,"nx":19,"ny":19,"refTime":"2026-03-10T09:00:00:Z","depth":0,"parameterNumber":3,"parameterNumberName":"V-component_of_WINDS"},"data":[0,0,0,2.6273,2.6273,2.6294,2.6294,2.6318,2.6318,0,0,0,0,0,0,0,0,0,0,0,2.6265,2.6266,2.6273,2.6273,2.6294,2.6294,2.6318,2.6318,0,0,0,0,0,0,0,0,0,0,0,2.6265,2.6266,2.6266,2.6274,2.6294,2.6294,2.6318,2.6303,0,0,0,0,0,0,0,0,0,0,2.6284,2.6275,2.6265,2.6266,2.6274,2.6294,2.6294,2.6303,2.6304,2.6308,0,2.6311,0,2.6315,2.632,2.632,0,0,0,2.6274,2.6274,2.6281,2.6266,2.6274,2.6294,2.6285,2.6304,2.6305,2.631,2.6311,2.6312,2.6316,2.632,2.632,2.6342,2.6342,0,0,2.6273,2.6268,2.628,2.6282,2.6279,2.6284,2.6286,2.6305,2.6305,2.6311,2.6313,2.6316,2.632,2.632,2.6342,2.6342,0,0,0,2.6269,2.6267,2.6274,2.6281,2.6285,2.6285,2.6286,2.6305,2.6307,2.6313,2.6316,2.632,2.6321,2.6342,2.6342,2.6342,0,0,0,2.6269,2.6265,2.6273,2.627,2.6285,2.6295,2.6286,2.6306,2.6308,2.6316,2.632,2.6321,2.6342,2.6342,2.6341,2.6342,0,0,0,2.6265,2.6264,2.6267,2.627,2.6279,2.6295,2.6299,2.6307,2.631,2.632,2.6321,2.6342,2.6342,2.6341,2.6342,2.6348,0,0,0,2.6258,2.6264,2.6267,2.6275,2.6279,2.6295,2.6299,2.631,2.6319,2.632,2.6342,2.6342,2.6341,2.6341,2.6347,2.6352,2.6353,0,0,2.6263,2.6265,2.627,2.6273,2.6288,2.6292,2.6306,2.6318,2.6322,2.6335,2.6336,2.6341,2.6342,2.6348,2.6362,2.6363,0,0,0,2.627,2.6274,2.6279,2.6288,2.6298,2.6308,2.6318,2.6323,2.6335,2.6328,2.6345,2.6345,2.6349,2.6351,2.6352,2.6357,2.6343,2.6343,2.6343,2.6268,2.6277,2.6287,2.6299,2.6307,2.632,2.6328,2.6336,2.634,2.6344,2.6348,2.6355,2.6358,2.6359,2.6363,2.635,2.635,2.635,2.635,2.6277,2.6284,2.6293,2.6306,2.6315,2.6326,2.6339,2.6342,2.6354,2.6352,2.6356,2.6354,2.636,2.6364,2.635,2.635,2.635,2.635,2.635,2.6277,2.6282,2.629,2.6306,2.6318,2.6329,2.6341,2.6348,2.6355,2.6359,2.6365,2.6365,2.6366,2.6361,2.6361,2.6361,2.6361,2.6361,2.6361,2.6274,2.6283,2.6292,2.6307,2.6316,2.6328,2.6343,2.6351,2.6363,2.6367,2.6367,2.6371,2.6359,2.6356,2.6362,2.6362,2.6362,2.6361,2.6361,2.6279,2.628,2.6296,2.6304,2.6324,2.6337,2.6347,2.6364,2.6372,2.6379,2.6384,2.6373,2.6374,2.6374,2.6372,2.6381,2.6381,2.6381,2.6381,2.628,2.6282,2.6302,2.6316,2.6331,2.6343,2.6361,2.6375,2.6388,2.6394,2.6394,2.6391,2.6391,2.6393,2.6392,2.639,2.6403,2.6403,2.6403,2.6284,2.629,2.6303,2.6318,2.6335,2.635,2.6368,2.6385,2.64,2.6405,2.6399,2.6398,2.6395,2.6393,2.6395,2.6394,2.639,0,0]}]]